Regional Weather Roundup
Issued by NWS Kansas City/Pleasant Hill, MO

Home | Current Version | Previous Version | Text Only | Print | Product List | Glossary On
Versions: 1 2 3 4 5 6 7 8 9 10 11 12 13 14 15 16 17 18 19 20 21 22 23 24 25 26 27 28 29 30 31 32 33 34 35 36 37 38 39 40 41 42 43 44 45 46 47 48 49 50
000
ASUS43 KEAX 270204
RWREAX

WEATHER ROUNDUP FOR EASTERN KANSAS AND NORTHWEST MISSOURI
NATIONAL WEATHER SERVICE KANSAS CITY/PLEASANT HILL MO
800 PM CST WED NOV 26 2014

KSZ040-057-103>105-MOZ028-029-037-043-270300-
...KANSAS CITY METROPOLITAN AREA...

CITY           SKY/WX    TMP DP  RH WIND       PRES   REMARKS
K.C. INTL      CLOUDY    30  23  75 NW15G28   30.27R WCI  19
K.C. DOWNTOWN  CLOUDY    32  23  69 NW14G25   30.29R WCI  22
LEES SUMMIT    CLOUDY    31  23  72 NW21      30.27R WCI  18
OLATHE - IXD   CLOUDY    30  22  72 NW18      30.30R WCI  18
OLATHE - OJC   CLOUDY    31  22  69 N15G28    30.28R WCI  20
LAWRENCE       CLOUDY    30  22  72 NW20G30   30.33R WCI  17

$$

MOZ001>008-011>017-020>025-030>033-038>040-044>046-053-054-270300-
...NORTHERN AND CENTRAL MISSOURI...

CITY           SKY/WX    TMP DP  RH WIND       PRES   REMARKS
ST. JOSEPH     CLOUDY    29  22  75 N23G33    30.32R WCI  15
MOSBY          CLOUDY    32  27  80 NW18G26   30.28R WCI  20
WARRENSBURG    CLOUDY    32  27  80 NW21G28   30.25R WCI  20
WHITEMAN AFB   CLOUDY    32  27  79 N23G30    30.22R WCI  20
CLINTON        CLOUDY    34  28  80 NW15G21   30.25R WCI  24
SEDALIA        CLOUDY    33  27  78 NW21      30.21R WCI  21
WARSAW         NOT AVBL
MARSHALL       CLOUDY    34  30  86 NW15G26   30.21R WCI  24
CHILLICOTHE      N/A     32  28  85 NW12G18   30.24R WCI  23
KIRKSVILLE     LGT SNOW  32  30  92 N13       30.17R FOG     WCI  22

$$

MOZ041-047>049-056>058-063>065-088>090-097-270300-
...EASTERN AND SOUTHERN MISSOURI...

CITY           SKY/WX    TMP DP  RH WIND       PRES   REMARKS
ST. LOUIS INTL LGT SNOW  34  32  92 CALM      30.08R
SPIRIT OF STL  DRIZZLE   33  32  96 CALM      30.07R FOG
COLUMBIA       MIX PCPN  33  30  88 NW16G24   30.13R WCI  23
JEFFERSON CITY CLOUDY    35  29  78 NW17G32   30.15R WCI  25
MEXICO         LGT SNOW N/A N/A N/A W12G17    30.10R
ROLLA          CLOUDY    34  31  88 W22G29    30.09R WCI  22
LEBANON        CLOUDY    36  28  75 W17G25    30.16R WCI  25
OSAGE BEACH    CLOUDY    36  27  69 NW9G22    30.16R WCI  29
SPRINGFIELD    CLOUDY    37  26  64 NW17G28   30.20R WCI  27
BRANSON        MOCLDY    39  27  60 NW13G23   30.20R WCI  32
NEVADA         CLOUDY    34  25  69 NW14G21   30.29R WCI  24
JOPLIN         CLOUDY    37  25  61 NW18      30.30R WCI  27
WEST PLAINS    CLOUDY    40  27  59 NW15G29   30.12R WCI  32

$$

IAZ060-094-KSZ022-034>040-054-083-096-NEZ052-066-093-270300-
...KANSAS...SOUTHEAST NEBRASKA AND IOWA...

CITY           SKY/WX    TMP DP  RH WIND       PRES   REMARKS
TOPEKA         CLOUDY    31  21  66 NW17G24   30.36R WCI  19
MANHATTAN      CLEAR     29  21  72 N7        30.39R WCI  22
EMPORIA        CLEAR     30  22  72 NW14      30.35R WCI  19
CHANUTE        CLEAR     32  24  72 NW13      30.33R WCI  22
WICHITA        MOCLDY    37  21  52 N16       30.38R WCI  28
OMAHA          CLOUDY    24  18  77 N22G31    30.40R WCI   9
LINCOLN        MOCLDY    25  17  72 N15       30.41R WCI  13
FALLS CITY     CLOUDY    27  20  75 NW17G28   30.34R WCI  14
LAMONI         CLOUDY    28  25  88 N18G26    30.24R WCI  15
DES MOINES     LGT SNOW  29  25  85 N13       30.28R FOG     WCI  19

$$



USA.gov is the U.S. government's official web portal to all federal, state and local government web resources and services.